Weather History for KCGI - December, 2011

Change the Weather History Date:

Friday, December 30, 2011

  Actual Average Record
Temperature  
Mean Temperature 50 °F 33 °F  
Max Temperature 60 °F 42 °F 64 °F (1971)
Min Temperature 39 °F 25 °F -5 °F (1983)
Degree Days  
Heating Degree Days 15 32  
Month to date heating degree days 731 868  
Since 1 July heating degree days 1456 1719  
Cooling Degree Days 0 0  
Month to date cooling degree days 0 0  
Year to date cooling degree days 1698 1453  
Moisture  
Dew Point 41 °F    
Average Humidity 69    
Maximum Humidity 93    
Minimum Humidity 44    
Precipitation  
Precipitation 0.00 in 0.12 in 1.08 in (1990)
Month to date precipitation 5.77 4.13  
Year to date precipitation 74.51 46.69  
Sea Level Pressure  
Sea Level Pressure 29.77 in    
Wind  
Wind Speed 13 mph (SW)    
Max Wind Speed 25 mph    
Max Gust Speed 32 mph    
Visibility 10 miles    
Events      
T = Trace of Precipitation, MM = Missing Value Source: NWS Daily Summary

Daily Weather History Graph

Daily Weather History Graph

Search for Another Location

Airport or City:

Trip Planner

Search our weather history database for the weather conditions in past years. The results will help you decide how hot, cold, wet, or windy it might be!

Date:

Astronomy

Dec. 30, 2011 Rise Set
Actual Time 7:11 AM CST 4:49 PM CST
Civil Twilight 6:42 AM CST 5:18 PM CST
Nautical Twilight 6:10 AM CST 5:51 PM CST
Astronomical Twilight 5:38 AM CST 6:23 PM CST
Moon 10:39 AM CST (12/30) 11:15 PM CST (12/30)
Length of Visible Light 10h 36m
Length of Day
9h 38m
Waxing Crescent, 36% of the Moon is Illuminated
Dec 30
Waxing Crescent
Jan 1
First Quarter
Jan 9
Full
Jan 16
Last Quarter
Jan 23
New

Hourly Weather History & Observations

Time (CST) Temp. Windchill Dew Point Humidity Pressure Visibility Wind Dir Wind Speed Gust Speed Precip Events Conditions
12:53 AM 48.0 °F - 45.0 °F 89% 29.81 in 10.0 mi South 9.2 mph - N/A   Scattered Clouds
1:53 AM 48.0 °F - 45.0 °F 89% 29.78 in 10.0 mi South 10.4 mph 18.4 mph N/A   Partly Cloudy
2:53 AM 48.9 °F - 46.0 °F 90% 29.78 in 10.0 mi South 15.0 mph 21.9 mph N/A   Clear
3:53 AM 48.9 °F - 46.0 °F 90% 29.75 in 10.0 mi South 15.0 mph - N/A   Clear
4:53 AM 48.9 °F - 46.0 °F 90% 29.72 in 10.0 mi South 16.1 mph 24.2 mph N/A   Partly Cloudy
5:49 AM 50.0 °F - 46.4 °F 87% 29.71 in 10.0 mi SSW 17.3 mph 25.3 mph N/A   Mostly Cloudy
5:53 AM 50.0 °F - 46.0 °F 86% 29.71 in 10.0 mi SSW 16.1 mph 25.3 mph N/A   Mostly Cloudy
6:31 AM 48.2 °F - 46.4 °F 93% 29.72 in 10.0 mi SSW 19.6 mph 29.9 mph N/A   Overcast
6:53 AM 48.0 °F - 46.0 °F 93% 29.72 in 10.0 mi SSW 17.3 mph 25.3 mph N/A   Overcast
7:29 AM 48.2 °F - 44.6 °F 87% 29.71 in 10.0 mi SSW 16.1 mph - N/A   Partly Cloudy
7:53 AM 48.0 °F - 45.0 °F 89% 29.71 in 10.0 mi SSW 17.3 mph 25.3 mph N/A   Clear
8:53 AM 50.0 °F - 45.0 °F 83% 29.74 in 10.0 mi SW 18.4 mph - N/A   Clear
9:53 AM 51.8 °F - 44.6 °F 76% 29.74 in 10.0 mi SW 20.7 mph - N/A   Clear
10:53 AM 52.0 °F - 44.1 °F 74% 29.75 in 10.0 mi SW 13.8 mph - N/A   Clear
11:53 AM 55.0 °F - 42.1 °F 62% 29.72 in 10.0 mi SW 18.4 mph 26.5 mph N/A   Clear
12:53 PM 57.0 °F - 42.1 °F 57% 29.70 in 10.0 mi SW 18.4 mph 27.6 mph N/A   Clear
1:53 PM 57.9 °F - 44.1 °F 60% 29.71 in 10.0 mi SW 16.1 mph 21.9 mph N/A   Scattered Clouds
2:29 PM 60.8 °F - 37.4 °F 42% 29.72 in 10.0 mi West 18.4 mph 26.5 mph N/A   Clear
2:53 PM 59.0 °F - 37.9 °F 46% 29.73 in 10.0 mi West 17.3 mph 25.3 mph N/A   Clear
3:53 PM 57.9 °F - 37.0 °F 46% 29.75 in 10.0 mi WSW 16.1 mph - N/A   Clear
4:53 PM 51.1 °F - 39.0 °F 63% 29.78 in 10.0 mi WSW 9.2 mph - N/A   Clear
5:53 PM 46.0 °F 41.9 °F 37.0 °F 71% 29.81 in 10.0 mi West 8.1 mph - N/A   Clear
6:53 PM 46.9 °F - 35.1 °F 63% 29.85 in 10.0 mi West 9.2 mph - N/A   Clear
7:53 PM 45.0 °F 40.1 °F 36.0 °F 71% 29.88 in 10.0 mi WSW 9.2 mph - N/A   Mostly Cloudy
8:53 PM 45.0 °F 40.6 °F 36.0 °F 71% 29.89 in 10.0 mi WSW 8.1 mph - N/A   Mostly Cloudy
9:53 PM 45.0 °F 39.7 °F 34.0 °F 65% 29.91 in 10.0 mi WSW 10.4 mph - N/A   Clear
10:53 PM 39.0 °F 34.0 °F 33.1 °F 79% 29.93 in 10.0 mi West 6.9 mph - N/A   Clear
11:53 PM 44.1 °F - 33.1 °F 65% 29.95 in 10.0 mi Calm Calm - N/A   Clear